Volver al catálogo

ONEWEB-0191

ActivoComunicacionesPO
NORAD 48239·PAYLOAD·🇬🇧 United Kingdom

Lanzado Apr 25, 2021 desde Vostochny Cosmodrome

Loading…

Próximos Pases (próximas 24 horas)

TLE

ActualizadoSource: CelesTrak SupGP

Época: Sep 14, 2026, 16:20 UTC

1 48239C 21031AF  26257.68074491 -.00002222  00000+0 -59997-2 0  2571
2 48239  87.8893 271.8560 0001968  96.4904 304.5009 13.14502910    14

Sigue ONEWEB-0191 en tiempo real con AllMySat

Download on the App Store